N622MS KOWB-KLUK

Flight info

Callsign N622MS
Flight time N/A
Altitude 3500
Route DCT
Aircraft SR22/L-SDGRY/S

Departure

Time 2026-05-06 23:18
Airport Owensboro Daviess County Airport (KOWB)

Arrival

Time N/A
Airport Cincinnati Municipal Airport Lunken Field (KLUK)
Time Latitude Longitude Altitude Speed Heading
2026-05-06 22:47 37.74683 -87.16161 403 ft 0 kts 244°
2026-05-06 23:07 37.74683 -87.16162 403 ft 0 kts 245°
2026-05-06 23:07 37.74665 -87.16151 403 ft 3 kts 157°
2026-05-06 23:07 37.74661 -87.16149 403 ft 0 kts 152°
2026-05-06 23:08 37.74630 -87.16129 403 ft 10 kts 147°
2026-05-06 23:08 37.74574 -87.16077 403 ft 6 kts 141°
2026-05-06 23:08 37.74547 -87.16081 403 ft 6 kts 235°
2026-05-06 23:09 37.74507 -87.16146 403 ft 12 kts 239°
2026-05-06 23:09 37.74450 -87.16237 403 ft 15 kts 232°
2026-05-06 23:09 37.74383 -87.16344 402 ft 15 kts 232°
2026-05-06 23:09 37.74316 -87.16452 402 ft 15 kts 233°
2026-05-06 23:10 37.74248 -87.16560 402 ft 15 kts 232°
2026-05-06 23:10 37.74198 -87.16641 402 ft 0 kts 228°
2026-05-06 23:11 37.74145 -87.16726 401 ft 20 kts 234°
2026-05-06 23:11 37.74077 -87.16839 401 ft 11 kts 233°
2026-05-06 23:11 37.74027 -87.16917 401 ft 12 kts 231°
2026-05-06 23:11 37.73968 -87.17013 401 ft 14 kts 231°
2026-05-06 23:12 37.73902 -87.17118 400 ft 12 kts 234°
2026-05-06 23:12 37.73873 -87.17165 400 ft 0 kts 241°
2026-05-06 23:13 37.73872 -87.17168 400 ft 5 kts 234°
2026-05-06 23:13 37.73820 -87.17252 400 ft 9 kts 231°
2026-05-06 23:13 37.73801 -87.17281 400 ft 0 kts 229°
2026-05-06 23:14 37.73796 -87.17289 400 ft 5 kts 228°
2026-05-06 23:14 37.73749 -87.17324 400 ft 9 kts 192°
2026-05-06 23:14 37.73693 -87.17323 400 ft 0 kts 169°
2026-05-06 23:15 37.73666 -87.17318 400 ft 7 kts 171°
2026-05-06 23:15 37.73614 -87.17294 400 ft 5 kts 95°
2026-05-06 23:15 37.73620 -87.17279 400 ft 0 kts 55°
2026-05-06 23:16 37.73636 -87.17256 400 ft 24 kts 51°
2026-05-06 23:17 37.73896 -87.16830 404 ft 91 kts 49°
2026-05-06 23:17 37.74298 -87.16117 606 ft 111 kts 53°
2026-05-06 23:17 37.74661 -87.15174 794 ft 130 kts 79°
2026-05-06 23:17 37.74706 -87.13965 956 ft 143 kts 80°
2026-05-06 23:18 37.74839 -87.12711 1213 ft 143 kts 75°
2026-05-06 23:18 37.75054 -87.11497 1508 ft 140 kts 63°
2026-05-06 23:18 37.75457 -87.10444 1914 ft 130 kts 52°
2026-05-06 23:18 37.75943 -87.09467 2205 ft 131 kts 47°
2026-05-06 23:19 37.76488 -87.08565 2562 ft 127 kts 44°
2026-05-06 23:19 37.77030 -87.07658 2866 ft 131 kts 51°
2026-05-06 23:19 37.77545 -87.06701 3138 ft 135 kts 47°
2026-05-06 23:19 37.78301 -87.05439 3435 ft 141 kts 46°
2026-05-06 23:20 37.78714 -87.04768 3463 ft 146 kts 46°
2026-05-06 23:20 37.79353 -87.03711 3466 ft 153 kts 46°
2026-05-06 23:20 37.80019 -87.02647 3465 ft 156 kts 46°
2026-05-06 23:20 37.80702 -87.01566 3463 ft 158 kts 46°
2026-05-06 23:21 37.81393 -87.00465 3463 ft 159 kts 46°
2026-05-06 23:21 37.82082 -86.99357 3463 ft 159 kts 46°
2026-05-06 23:21 37.82760 -86.98270 3460 ft 159 kts 46°
2026-05-06 23:21 37.83501 -86.97227 3461 ft 155 kts 33°
2026-05-06 23:22 37.84369 -86.96426 3462 ft 155 kts 31°
2026-05-06 23:22 37.85247 -86.95629 3460 ft 155 kts 31°
2026-05-06 23:22 37.86124 -86.94833 3463 ft 155 kts 31°
2026-05-06 23:22 37.87010 -86.94028 3460 ft 156 kts 31°
2026-05-06 23:23 37.87892 -86.93224 3461 ft 156 kts 31°
2026-05-06 23:23 37.88786 -86.92422 3457 ft 156 kts 31°
2026-05-06 23:23 37.89670 -86.91621 3455 ft 156 kts 31°
2026-05-06 23:23 37.90846 -86.90549 3454 ft 156 kts 31°
2026-05-06 23:24 37.91398 -86.89935 3443 ft 159 kts 44°
2026-05-06 23:24 37.92083 -86.88840 3452 ft 159 kts 47°
2026-05-06 23:24 37.92534 -86.87526 3430 ft 167 kts 78°
2026-05-06 23:24 37.92513 -86.86057 3455 ft 168 kts 86°
2026-05-06 23:25 37.92474 -86.84563 3453 ft 168 kts 86°
2026-05-06 23:25 37.92428 -86.83061 3450 ft 168 kts 86°
2026-05-06 23:25 37.92381 -86.81580 3456 ft 168 kts 85°
2026-05-06 23:25 37.92337 -86.80109 3452 ft 168 kts 85°
2026-05-06 23:26 37.92293 -86.78616 3453 ft 168 kts 86°
2026-05-06 23:26 37.92257 -86.77123 3454 ft 168 kts 85°
2026-05-06 23:26 37.92216 -86.75630 3452 ft 169 kts 86°
2026-05-06 23:26 37.92183 -86.74141 3452 ft 169 kts 86°
2026-05-06 23:27 37.92147 -86.72654 3460 ft 169 kts 85°
2026-05-06 23:27 37.92104 -86.71172 3479 ft 168 kts 86°
2026-05-06 23:27 37.92065 -86.69686 3488 ft 169 kts 85°
2026-05-06 23:27 37.92022 -86.68173 3490 ft 169 kts 85°
2026-05-06 23:28 37.91982 -86.66693 3489 ft 170 kts 86°
2026-05-06 23:28 37.91942 -86.65197 3483 ft 170 kts 86°
2026-05-06 23:28 37.91904 -86.63691 3485 ft 169 kts 86°
2026-05-06 23:28 37.91876 -86.62205 3486 ft 169 kts 86°
2026-05-06 23:29 37.91843 -86.60692 3483 ft 169 kts 85°
2026-05-06 23:29 37.91803 -86.58720 3486 ft 169 kts 86°
2026-05-06 23:29 37.91780 -86.57722 3486 ft 169 kts 85°
2026-05-06 23:29 37.91947 -86.56277 3491 ft 164 kts 67°
2026-05-06 23:30 37.92294 -86.54889 3489 ft 164 kts 66°
2026-05-06 23:30 37.92645 -86.53501 3486 ft 164 kts 66°
2026-05-06 23:30 37.92987 -86.52115 3486 ft 165 kts 66°
2026-05-06 23:30 37.93318 -86.50732 3484 ft 165 kts 66°
2026-05-06 23:31 37.93655 -86.49342 3486 ft 165 kts 66°
2026-05-06 23:31 37.94012 -86.47938 3489 ft 165 kts 66°
2026-05-06 23:31 37.94353 -86.46549 3490 ft 166 kts 66°
2026-05-06 23:31 37.94698 -86.45139 3488 ft 166 kts 66°